Flag for Pakistan Weather past 2 weeks in Karachi, Pakistan

Now
88 °F

Clear.


Feels Like: 93 °F
Forecast: 77 / 87 °F
Wind: 12 mph from Southwest

Location: Karachi Airport


UV Index: 7 (High)

Visibility: 4 mi


Pressure: 29.71 "Hg

Humidity: 55%

Dew point: 70 °F

Location of KarachiLocation

Historic Weather in Karachi

°F

Karachi temperature yesterday

Maximum temperature yesterday: 93 °F (at 1:55 PM)
Minimum temperature yesterday: 77 °F (at 3:25 AM)
Average temperature yesterday: 84 °F

Past Weeks' High & Low Weather Summary

 TemperatureHumidityPressure
High97 °F (Apr 6, 1:25 PM)89% (Apr 3, 6:55 AM)29.98 "Hg (Apr 3, 6:55 AM)
Low64 °F (Apr 9, 6:25 AM)7% (Apr 7, 11:55 AM)29.71 "Hg (Apr 2, 3:55 PM)
Average82 °F59%29.84 "Hg
* Reported Apr 2 12:25 PM — Apr 17 12:25 PM, Karachi, Weather by CustomWeather, © 2014

Note: Actual official high and low records may vary slightly from our data, if they occured in-between our weather recording intervals... More about our weather records

Advertising

Historic Weather Conditions — Data for Previous 24 hours

 ConditionsComfort  
Time TempWeatherWind HumidityBarometerVisibility
12:25 PM
Apr 17
88 °FClear.10 mph55%29.74 "Hg4 mi
11:55 AM88 °FClear.6 mph55%29.74 "Hg4 mi
11:25 AM88 °FClear.12 mph55%29.74 "Hg4 mi
10:55 AM88 °FClear.5 mph55%29.77 "Hg4 mi
10:25 AM86 °FPassing clouds.16 mph59%29.74 "Hg4 mi
9:55 AM86 °FPassing clouds.10 mph59%29.74 "Hg4 mi
9:25 AM84 °FPassing clouds.14 mph66%29.74 "Hg4 mi
8:55 AM82 °FScattered clouds.14 mph70%29.74 "Hg4 mi
8:25 AM81 °FScattered clouds.13 mph74%29.74 "Hg4 mi
7:55 AM79 °FScattered clouds.12 mph79%29.74 "Hg4 mi
7:25 AM79 °FScattered clouds.12 mph79%29.74 "Hg4 mi
6:55 AM77 °FScattered clouds.8 mph83%29.71 "Hg4 mi
6:25 AM77 °FScattered clouds.9 mph83%29.71 "Hg4 mi
5:55 AM77 °FPassing clouds.8 mph83%29.71 "Hg4 mi
4:55 AM77 °FPassing clouds.9 mph83%29.71 "Hg4 mi
4:25 AM77 °FPassing clouds.9 mph83%29.71 "Hg4 mi
4:00 AM77 °FPassing clouds.9 mph83%29.71 "Hg4 mi
2:55 AM79 °FPassing clouds.12 mph74%29.74 "Hg4 mi
2:00 AM79 °FPassing clouds.12 mph79%29.74 "Hg4 mi
1:30 AM79 °FPassing clouds.7 mph79%29.74 "Hg4 mi
1:00 AM79 °FPassing clouds.12 mph79%29.77 "Hg4 mi
12:30 AM79 °FPassing clouds.12 mph79%29.77 "Hg4 mi
11:55 PM
Apr 16
79 °FPassing clouds.9 mph79%29.77 "Hg4 mi
11:25 PM79 °FPassing clouds.8 mph79%29.77 "Hg4 mi
10:55 PM79 °FPassing clouds.9 mph79%29.80 "Hg4 mi
10:25 PM79 °FPassing clouds.12 mph79%29.80 "Hg4 mi
9:55 PM81 °FPassing clouds.10 mph74%29.77 "Hg4 mi
9:25 PM81 °FPassing clouds.9 mph74%29.77 "Hg4 mi
8:55 PM81 °FPassing clouds.12 mph74%29.77 "Hg4 mi
8:25 PM81 °FPassing clouds.12 mph70%29.77 "Hg4 mi
7:55 PM81 °FPassing clouds.6 mph70%29.74 "Hg4 mi
7:25 PM82 °FPassing clouds.14 mph62%29.74 "Hg4 mi
6:55 PM82 °FPassing clouds.10 mph62%29.74 "Hg4 mi
6:25 PM84 °FScattered clouds.10 mph55%29.74 "Hg4 mi
5:55 PM86 °FScattered clouds.8 mph55%29.74 "Hg4 mi
5:25 PM86 °FScattered clouds.8 mph52%29.71 "Hg4 mi
4:55 PM88 °FPassing clouds.9 mph49%29.71 "Hg4 mi
4:25 PM90 °FScattered clouds.8 mph49%29.71 "Hg4 mi
3:55 PM91 °FScattered clouds.12 mph49%29.74 "Hg4 mi
3:25 PM91 °FScattered clouds.12 mph49%29.74 "Hg4 mi
2:55 PM93 °FPassing clouds.8 mph47%29.74 "Hg4 mi
2:25 PM93 °FClear.7 mph47%29.77 "Hg4 mi
1:55 PM93 °FClear.8 mph47%29.77 "Hg4 mi
1:25 PM91 °FClear.12 mph46%29.80 "Hg4 mi
Weather by CustomWeather, © 2014

See weather overview